Wind_Speed
31 30 28 28 28 28 29 31 32 34 35 36 38 40 42 42 42 42 42 42 42 42 43 43 43 42 42 41 40 38 36 34 33 32 31 32 32 33 34 34 35 35
32 30 29 29 29 29 30 32 34 35 36 38 40 41 43 43 42 42 42 42 43 43 43 43 43 43 42 41 39 37 36 34 33 32 32 32 33 34 34 35 35 36
33 32 31 30 30 30 31 33 35 37 39 40 41 42 43 43 43 43 43 43 43 43 44 44 43 43 42 40 38 37 35 34 33 32 32 32 33 34 35 35 36 36
34 33 33 33 32 32 32 34 35 37 39 41 41 42 43 43 43 43 43 43 44 44 44 44 43 42 40 38 37 36 35 34 33 32 32 33 34 34 35 36 36 36
35 35 35 35 35 34 34 34 34 35 37 39 40 41 42 43 43 43 43 43 44 44 44 43 42 41 40 39 38 36 35 34 33 33 32 33 34 35 36 36 36 36
36 36 36 36 37 37 37 36 35 35 35 36 38 39 40 41 41 41 42 43 44 44 43 43 42 41 40 39 38 36 35 34 34 33 33 33 34 35 35 36 36 36
38 37 37 38 38 39 38 37 36 35 35 36 36 37 38 39 40 41 43 44 44 44 43 42 42 41 40 39 38 36 35 35 34 34 33 34 34 34 35 36 36 36
38 39 39 39 39 39 38 37 37 37 37 38 38 39 39 40 41 43 44 44 44 44 43 42 42 41 40 39 38 37 36 35 35 34 34 34 34 34 35 36 36 36
39 40 41 41 39 39 39 39 39 39 39 39 40 41 41 42 43 43 44 44 43 43 43 42 42 40 40 39 38 37 37 36 35 35 35 34 34 34 35 36 36 37
41 42 43 42 40 40 41 41 41 40 40 40 40 41 42 42 42 42 42 42 42 42 43 42 42 41 40 39 39 38 38 37 36 36 35 35 34 34 35 35 36 37
41 42 43 42 41 41 42 42 42 42 41 40 41 41 42 42 42 42 42 42 42 43 43 42 42 41 40 39 39 39 38 37 37 37 36 35 34 34 35 35 36 37
40 41 42 42 42 42 43 44 44 44 43 41 41 42 43 43 44 44 44 44 43 43 43 42 42 41 40 40 39 39 39 38 38 37 36 35 34 34 34 35 36 37
41 41 42 43 43 43 45 46 46 45 43 42 43 44 45 45 45 45 44 44 43 43 42 42 41 40 40 40 40 39 39 38 38 38 36 35 34 34 34 35 36 37
41 42 44 44 44 45 46 47 46 45 44 43 43 44 46 46 45 43 43 42 43 43 42 41 41 40 40 40 40 39 39 39 39 38 36 35 34 34 34 35 36 37
42 43 44 44 45 45 45 46 46 45 44 43 43 44 44 44 43 42 41 42 43 42 42 41 41 40 40 40 40 40 40 40 39 38 37 35 34 34 34 35 36 37
43 43 44 44 44 44 45 45 45 45 44 43 42 42 42 43 42 41 42 42 43 42 41 41 40 40 40 40 40 40 41 41 40 38 37 35 34 34 34 35 36 37
43 44 44 44 44 44 44 45 45 44 43 43 42 41 42 43 42 41 42 42 43 42 41 41 40 40 40 40 40 41 41 41 40 39 37 35 34 34 34 35 36 37
43 44 44 44 44 44 44 44 44 43 42 42 43 43 44 44 42 41 41 42 43 42 41 40 40 40 40 40 41 42 42 42 41 39 37 35 35 35 35 36 36 37
43 44 44 44 44 44 44 44 43 42 41 41 43 45 45 43 41 41 42 42 43 42 41 40 39 39 40 40 41 42 43 43 42 39 37 35 35 36 36 36 36 37
42 43 43 43 44 44 44 43 42 41 40 40 43 46 45 43 41 42 42 43 42 41 41 40 39 39 39 40 42 42 43 44 43 41 38 36 35 35 36 36 36 37
41 42 42 43 43 43 43 42 41 40 39 40 43 45 45 43 42 43 43 42 42 41 40 39 38 38 40 40 42 43 43 44 43 42 40 38 37 36 36 36 36 37
41 41 42 42 43 43 42 41 40 39 39 40 42 44 44 44 43 42 42 41 41 40 40 38 37 38 40 41 42 43 44 44 43 42 41 39 38 37 37 36 36 37
41 42 42 43 43 42 41 41 39 39 39 40 42 43 44 43 42 41 41 41 40 40 39 38 37 38 39 41 42 43 44 44 43 42 41 40 39 38 37 37 37 37
42 43 43 43 42 41 41 41 40 40 41 41 42 42 42 42 41 40 40 40 40 39 39 39 38 38 39 41 42 43 44 45 44 43 41 40 39 39 38 37 37 38
43 44 43 43 42 41 41 41 41 41 41 41 41 41 41 40 40 40 40 39 39 39 39 39 38 38 39 41 42 43 44 45 45 43 42 40 40 39 38 37 37 38
43 43 43 42 41 41 41 41 41 41 40 40 39 39 39 39 39 39 40 39 39 39 39 39 39 39 40 41 42 43 44 45 45 44 42 41 41 40 38 37 37 38
Wind_Direction
272 273 275 277 279 280 281 281 279 276 273 269 266 265 265 266 267 269 270 272 273 274 275 277 278 280 281 282 283 284 286 287 287 287 287 288 291 293 295 297 298 299
270 272 275 278 281 282 282 282 280 278 274 270 268 266 265 266 266 267 269 270 271 273 274 276 277 278 279 281 282 283 285 286 286 286 286 288 292 294 296 297 298 299
270 272 276 279 281 282 282 281 279 277 274 271 268 266 265 265 265 265 267 268 270 272 273 275 276 277 278 280 281 283 284 285 285 285 285 289 292 294 295 297 298 299
270 273 277 280 281 283 283 282 281 278 274 271 268 266 265 264 263 264 266 267 269 271 272 274 276 277 279 280 281 283 284 285 285 284 286 289 292 294 295 296 297 299
271 274 278 280 282 284 285 285 284 282 278 272 267 265 264 263 263 264 265 266 268 270 271 273 276 277 278 279 281 282 283 284 284 283 286 289 291 293 294 295 297 298
270 274 277 280 282 284 285 284 283 283 282 276 269 265 263 262 263 264 266 267 268 270 271 274 275 276 277 278 280 281 282 282 281 282 285 289 290 292 293 294 296 297
269 272 276 278 280 282 282 281 280 281 283 279 273 268 266 265 266 267 267 268 269 271 272 273 274 274 276 277 279 280 281 280 280 281 285 288 289 291 292 294 296 297
268 271 274 276 278 279 278 278 279 280 282 280 275 272 270 269 269 269 269 270 271 272 272 272 272 273 274 276 278 279 279 279 279 281 286 288 288 290 292 293 295 296
269 270 272 275 277 277 276 277 278 280 281 280 275 272 271 270 270 270 271 271 271 271 271 271 271 272 274 276 277 278 278 278 278 281 285 286 288 290 291 293 294 295
271 271 273 274 275 274 274 275 276 278 280 277 273 271 271 272 272 272 272 271 271 270 270 270 270 271 272 274 276 277 277 277 278 281 284 285 287 289 291 292 293 294
271 272 272 273 272 270 270 272 274 276 277 274 271 270 271 272 273 272 271 270 269 269 269 268 268 269 271 273 275 276 275 275 277 281 283 284 286 288 290 291 292 293
271 271 271 271 269 267 267 269 272 275 275 272 269 267 267 269 269 269 268 267 267 268 268 267 267 268 271 273 274 274 273 274 277 280 282 284 286 288 290 291 292 292
271 270 269 269 268 267 268 270 272 274 274 272 268 265 264 264 265 265 265 266 266 267 266 265 266 268 270 272 272 272 272 274 277 280 281 284 286 288 290 291 291 292
270 269 269 268 268 269 270 272 273 274 274 272 269 267 265 264 264 265 266 267 267 265 263 264 266 268 270 271 270 270 271 274 277 279 281 283 286 288 290 290 291 291
270 269 270 270 271 272 273 274 274 274 273 272 269 268 266 265 265 266 267 267 266 263 262 263 266 268 269 269 269 269 271 275 277 279 281 284 286 289 290 290 291 291
271 271 272 272 273 274 274 274 275 274 273 271 267 266 266 265 264 266 267 266 263 261 261 263 266 267 268 268 268 269 272 276 277 279 281 285 288 289 290 290 290 290
273 273 274 274 274 274 274 275 275 274 273 269 265 265 265 263 263 264 266 264 261 260 261 263 265 266 266 266 267 270 274 276 277 279 283 286 288 290 290 289 289 290
274 274 275 275 275 274 274 274 273 273 272 269 265 263 262 261 261 264 264 263 261 260 261 263 264 264 265 265 268 272 274 276 277 280 284 287 289 290 290 289 289 289
273 274 274 274 275 274 273 273 272 272 272 269 265 262 260 260 262 264 264 262 260 259 261 263 263 263 264 266 269 273 275 276 278 281 284 287 289 289 289 289 289 290
274 275 275 275 275 274 273 273 273 272 269 266 264 262 261 261 264 265 263 261 259 259 261 261 262 262 264 268 271 274 275 277 280 282 285 287 288 288 288 288 288 289
276 276 276 275 274 274 273 273 273 271 268 264 263 262 261 262 264 264 262 260 259 260 261 260 261 262 266 269 272 274 276 278 281 284 286 288 289 288 288 288 288 289
276 276 275 274 273 273 273 273 272 270 267 263 261 261 262 263 264 263 260 259 259 260 260 260 260 263 267 270 272 274 276 279 282 284 287 289 289 289 288 288 289 290
276 274 274 273 272 272 272 271 270 267 264 262 260 261 262 263 263 261 259 258 259 259 259 259 261 264 268 270 272 274 277 279 282 284 286 288 289 289 288 289 290 291
273 272 272 272 272 272 271 270 268 265 263 261 260 260 261 261 261 259 258 258 258 258 258 260 262 265 268 270 272 274 277 279 282 284 286 287 288 288 288 289 291 292
270 271 271 272 272 271 270 268 266 264 263 262 261 261 261 260 259 258 257 256 256 257 259 261 264 267 268 270 272 275 277 280 282 284 285 287 287 287 288 290 291 292
270 269 270 271 271 270 268 267 265 264 263 262 261 261 260 259 258 257 256 256 256 258 260 263 265 267 268 270 272 275 278 280 282 284 285 286 286 286 288 290 291 292
Height
3043 3042 3041 3041 3040 3039 3039 3038 3038 3037 3038 3038 3038 3037 3037 3037 3037 3037 3037 3037 3037 3037 3036 3036 3035 3035 3034 3033 3032 3031 3031 3030 3029 3028 3027 3027 3026 3024 3023 3022 3021 3019
3039 3038 3037 3037 3036 3035 3035 3034 3033 3033 3032 3032 3032 3031 3031 3032 3032 3032 3032 3032 3032 3032 3031 3031 3030 3030 3029 3028 3027 3027 3026 3025 3025 3024 3023 3022 3022 3020 3019 3018 3016 3015
3034 3033 3033 3032 3032 3031 3030 3029 3028 3028 3027 3026 3026 3026 3026 3027 3027 3027 3027 3027 3027 3027 3026 3026 3025 3024 3024 3023 3022 3022 3021 3021 3020 3020 3019 3018 3017 3016 3015 3013 3012 3011
3029 3029 3028 3028 3027 3026 3025 3024 3023 3023 3022 3021 3021 3021 3021 3021 3022 3022 3022 3022 3022 3022 3021 3021 3020 3019 3019 3018 3017 3017 3016 3016 3016 3016 3015 3014 3013 3012 3010 3009 3007 3006
3024 3024 3023 3023 3022 3021 3020 3019 3018 3017 3016 3016 3016 3015 3015 3015 3016 3017 3017 3017 3016 3016 3016 3015 3015 3014 3013 3013 3012 3012 3012 3011 3011 3011 3011 3010 3009 3007 3006 3004 3003 3002
3019 3019 3018 3018 3017 3016 3015 3014 3013 3012 3011 3011 3010 3010 3010 3010 3011 3011 3011 3011 3011 3011 3010 3010 3009 3009 3008 3008 3008 3008 3007 3007 3007 3007 3007 3006 3005 3003 3001 3000 2998 2997
3014 3013 3013 3012 3012 3011 3010 3009 3008 3007 3007 3006 3006 3006 3006 3006 3006 3006 3006 3006 3005 3005 3005 3005 3004 3004 3004 3003 3003 3003 3003 3003 3002 3002 3002 3001 3000 2999 2997 2995 2994 2992
3008 3007 3007 3007 3006 3006 3005 3004 3003 3003 3002 3002 3001 3001 3001 3001 3001 3001 3001 3000 3000 3000 3000 2999 2999 2999 2998 2998 2998 2998 2998 2998 2998 2998 2997 2997 2996 2994 2992 2990 2989 2987
3002 3002 3002 3001 3001 3001 3000 2999 2999 2998 2998 2997 2997 2997 2996 2996 2996 2996 2995 2995 2995 2995 2994 2994 2994 2993 2993 2993 2994 2993 2993 2993 2993 2993 2993 2992 2991 2989 2987 2986 2984 2983
2997 2996 2996 2996 2996 2995 2994 2994 2993 2993 2992 2992 2992 2992 2991 2991 2991 2990 2990 2990 2990 2989 2989 2989 2988 2988 2988 2989 2989 2988 2988 2988 2988 2988 2988 2987 2986 2985 2983 2981 2980 2978
2991 2990 2990 2990 2990 2989 2988 2988 2987 2987 2987 2986 2986 2986 2986 2986 2985 2985 2984 2984 2984 2984 2984 2983 2983 2983 2984 2984 2984 2983 2984 2984 2983 2983 2983 2982 2981 2980 2978 2977 2975 2973
2985 2984 2984 2984 2983 2983 2982 2982 2981 2981 2981 2981 2981 2980 2980 2980 2979 2979 2979 2978 2978 2978 2978 2978 2978 2979 2979 2979 2978 2978 2979 2979 2978 2978 2978 2977 2976 2975 2973 2972 2970 2968
2979 2979 2978 2977 2977 2976 2976 2975 2975 2975 2975 2975 2975 2974 2974 2974 2973 2973 2973 2973 2973 2973 2973 2973 2973 2974 2974 2974 2973 2973 2973 2973 2973 2973 2973 2972 2971 2970 2968 2967 2965 2963
2973 2972 2972 2971 2971 2970 2970 2970 2970 2970 2970 2969 2969 2968 2968 2968 2968 2967 2968 2968 2968 2968 2968 2968 2968 2969 2969 2968 2968 2968 2968 2968 2967 2967 2967 2967 2966 2964 2963 2961 2960 2958
2967 2966 2966 2965 2965 2964 2964 2964 2964 2964 2964 2963 2963 2963 2963 2963 2962 2962 2962 2963 2963 2962 2962 2963 2963 2964 2963 2963 2962 2962 2962 2962 2961 2961 2961 2961 2960 2959 2958 2956 2954 2952
2961 2961 2960 2959 2959 2959 2959 2958 2958 2958 2957 2957 2957 2957 2957 2957 2957 2957 2957 2957 2957 2957 2957 2958 2958 2958 2958 2957 2957 2956 2956 2955 2955 2955 2955 2955 2954 2953 2952 2950 2948 2946
2956 2955 2954 2953 2953 2953 2953 2953 2952 2952 2951 2951 2951 2952 2951 2951 2951 2951 2951 2951 2951 2951 2952 2953 2953 2953 2952 2952 2951 2950 2950 2949 2949 2949 2949 2949 2948 2947 2946 2945 2942 2941
2950 2949 2948 2947 2947 2947 2947 2947 2946 2945 2945 2946 2946 2946 2945 2945 2945 2946 2946 2946 2946 2946 2947 2947 2948 2947 2947 2946 2945 2944 2943 2943 2943 2943 2943 2943 2942 2941 2940 2939 2937 2935
2944 2943 2942 2941 2941 2941 2940 2940 2940 2940 2940 2940 2940 2940 2939 2939 2940 2940 2940 2940 2941 2941 2942 2942 2942 2942 2941 2941 2940 2938 2937 2936 2936 2937 2938 2937 2937 2935 2934 2933 2931 2929
2938 2937 2936 2936 2935 2934 2934 2934 2934 2934 2934 2934 2934 2934 2934 2934 2934 2935 2935 2935 2935 2936 2936 2937 2937 2937 2936 2935 2934 2933 2931 2929 2929 2930 2931 2931 2931 2930 2929 2927 2925 2923
2932 2931 2930 2929 2929 2928 2928 2928 2928 2928 2928 2928 2928 2928 2928 2929 2929 2929 2929 2929 2930 2930 2931 2932 2932 2931 2930 2929 2928 2926 2925 2923 2923 2924 2924 2925 2925 2924 2923 2921 2919 2917
2926 2925 2924 2923 2922 2922 2922 2922 2922 2922 2922 2922 2922 2922 2923 2923 2923 2923 2923 2924 2924 2925 2925 2926 2927 2926 2925 2924 2922 2921 2919 2917 2917 2917 2917 2918 2918 2918 2916 2915 2913 2912
2920 2919 2918 2917 2917 2916 2916 2917 2916 2916 2916 2916 2916 2916 2917 2917 2918 2918 2918 2919 2919 2919 2920 2921 2921 2921 2920 2918 2916 2915 2913 2911 2911 2911 2911 2912 2911 2911 2909 2908 2907 2906
2913 2912 2912 2911 2911 2911 2911 2911 2910 2910 2909 2910 2910 2910 2911 2911 2911 2912 2913 2913 2914 2914 2914 2915 2915 2915 2914 2912 2911 2908 2906 2905 2905 2905 2905 2905 2905 2904 2903 2902 2901 2900
2908 2907 2906 2906 2906 2906 2905 2905 2904 2904 2903 2903 2904 2904 2905 2905 2906 2906 2907 2908 2908 2908 2908 2909 2909 2909 2908 2906 2904 2902 2900 2899 2898 2898 2899 2899 2898 2897 2897 2896 2895 2894
2902 2901 2901 2901 2900 2900 2899 2898 2898 2898 2898 2898 2898 2899 2899 2900 2900 2901 2901 2902 2902 2902 2902 2903 2903 2902 2901 2900 2898 2897 2895 2893 2892 2892 2893 2892 2891 2891 2891 2890 2889 2888